Location: Seattle
(47.6064°N, 122.3308°W)
Time: 04:22:27
(UTC-08:00)

N. Korean satellite - Pass Details

Date: 07 December 2022
Orbit: 407 x 441 km, 97.3° (Epoch: 05 February)

Event Time Altitude Azimuth Distance (km) Brightness Sun altitude
Rises 04:21:45 0° 33° (NNE) 2,509 10.6 -33.0°
Reaches altitude 10° 04:25:03 10° 67° (ENE) 1,614 9.9 -32.5°
Maximum altitude 04:26:20 12° 89° (E) 1,508 9.9 -32.2°
Drops below altitude 10° 04:27:35 10° 111° (ESE) 1,598 9.9 -32.0°
Sets 04:30:48 0° 145° (SE) 2,447 10.6 -31.5°
